Fairbanks, AK

6:10 AM AKST on December 06, 2019 (GMT -0900)
Fairbanks International

Weather History for PAFA - May, 2019

Change the Weather History Date:

Saturday, May 11, 2019

  Actual Average Record
Temperature  
Mean Temperature 48 °F 48 °F  
Max Temperature 59 °F 59 °F 88 °F (1995)
Min Temperature 36 °F 36 °F 19 °F (1964)
Degree Days  
Heating Degree Days 17 18  
Month to date heating degree days 197 218  
Since 1 July heating degree days 11459 13242  
Cooling Degree Days 0 0  
Month to date cooling degree days 0 0  
Year to date cooling degree days 0 0  
Moisture  
Dew Point 28 °F    
Average Humidity 42    
Maximum Humidity 65    
Minimum Humidity 16    
Precipitation  
Precipitation T in 0.02 in 0.47 in (1968)
Month to date precipitation 0.22 0.18  
Year to date precipitation 2.70 1.74  
Snow  
Snow 0.00 in 0.00 in 2.70 in (1968)
Month to date snowfall T 0.5  
Since 1 July snowfall 57.5 64.6  
Snow Depth 0.00 in    
Sea Level Pressure  
Sea Level Pressure 29.70 in    
Wind  
Wind Speed 5 mph (WSW)    
Max Wind Speed 23 mph    
Max Gust Speed 28 mph    
Visibility 10 miles    
Events Rain    
T = Trace of Precipitation, MM = Missing Value Source: NWS Daily Summary

Daily Weather History Graph

Daily Weather History Graph

Search for Another Location

Airport or City:

Astronomy

May. 11, 2019 Rise Set
Actual Time 4:42 AM AKDT 10:55 PM AKDT
Civil Twilight 3:05 AM AKDT 12:37 AM AKDT
Nautical Twilight Sun does not rise Sun does not rise
Astronomical Twilight Sun does not rise Sun does not rise
Moon 11:06 AM AKDT (5/11) 4:44 AM AKDT (5/11)
Length of Visible Light 21h 32m
Length of Day
18h 12m
Waxing Crescent, 48% of the Moon is Illuminated
May 11
Waxing Crescent
May 11
First Quarter
May 18
Full
May 26
Last Quarter
Jun 3
New

Hourly Weather History & Observations

Time (AKDT) Temp. Windchill Dew Point Humidity Pressure Visibility Wind Dir Wind Speed Gust Speed Precip Events Conditions
12:53 AM 46.9 °F - 25.0 °F 42% 29.54 in 10.0 mi SW 4.6 mph - N/A   Scattered Clouds
1:53 AM 42.1 °F - 27.0 °F 55% 29.56 in 10.0 mi Calm Calm - N/A   Scattered Clouds
2:53 AM 37.0 °F 31.6 °F 26.1 °F 65% 29.57 in 10.0 mi East 6.9 mph - N/A   Mostly Cloudy
3:53 AM 39.0 °F 35.7 °F 27.0 °F 62% 29.58 in 10.0 mi NE 4.6 mph - N/A   Mostly Cloudy
4:53 AM 41.0 °F 38.0 °F 28.4 °F 61% 29.59 in 10.0 mi NNE 4.6 mph - N/A   Mostly Cloudy
5:53 AM 43.0 °F 41.3 °F 28.9 °F 58% 29.62 in 10.0 mi NNE 3.5 mph - N/A   Mostly Cloudy
6:53 AM 44.1 °F - 26.1 °F 49% 29.64 in 10.0 mi Calm Calm - N/A   Mostly Cloudy
7:53 AM 45.0 °F 43.5 °F 27.0 °F 49% 29.65 in 10.0 mi ENE 3.5 mph - N/A   Mostly Cloudy
8:53 AM 48.0 °F - 28.0 °F 46% 29.67 in 10.0 mi Calm Calm - N/A   Mostly Cloudy
9:53 AM 50.0 °F - 27.0 °F 41% 29.68 in 10.0 mi Calm Calm - N/A   Mostly Cloudy
10:53 AM 53.1 °F - 26.1 °F 35% 29.69 in 10.0 mi WSW 3.5 mph - N/A   Mostly Cloudy
11:53 AM 54.0 °F - 25.0 °F 33% 29.70 in 10.0 mi Variable 5.8 mph - N/A   Mostly Cloudy
12:53 PM 57.0 °F - 25.0 °F 29% 29.70 in 10.0 mi Variable 3.5 mph - N/A   Mostly Cloudy
1:53 PM 57.9 °F - 25.0 °F 28% 29.70 in 10.0 mi Variable 5.8 mph - N/A   Mostly Cloudy
2:53 PM 57.9 °F - 23.0 °F 26% 29.71 in 10.0 mi Variable 4.6 mph - N/A   Mostly Cloudy
3:53 PM 57.2 °F - 24.8 °F 29% 29.70 in 10.0 mi South 10.4 mph - N/A   Mostly Cloudy
4:53 PM 59.0 °F - 23.0 °F 25% 29.72 in 10.0 mi South 8.1 mph - N/A   Mostly Cloudy
5:53 PM 57.9 °F - 23.0 °F 26% 29.74 in 10.0 mi SSW 8.1 mph - N/A   Mostly Cloudy
6:53 PM 55.0 °F - 28.9 °F 37% 29.77 in 10.0 mi West 23.0 mph 27.6 mph N/A   Mostly Cloudy
7:08 PM 53.1 °F - 32.0 °F 45% 29.76 in 10.0 mi West 16.1 mph - 0.00 in Rain Light Rain
7:53 PM 53.1 °F - 32.0 °F 45% 29.81 in 10.0 mi West 10.4 mph - 0.00 in   Mostly Cloudy
8:53 PM 52.0 °F - 33.1 °F 49% 29.82 in 10.0 mi WSW 5.8 mph - N/A   Mostly Cloudy
9:53 PM 51.1 °F - 33.1 °F 50% 29.86 in 10.0 mi WSW 8.1 mph - N/A   Mostly Cloudy
10:53 PM 50.0 °F - 33.1 °F 52% 29.88 in 10.0 mi WSW 4.6 mph - N/A   Mostly Cloudy
11:53 PM 48.9 °F - 35.1 °F 59% 29.90 in 10.0 mi Calm Calm - 0.00 in Rain Light Rain